FW4518 Weather Reports


Display with metric or nautical units.
time (UTC)temp
F
wind
direction
speed
MPH
gust
MPH
rain 1hr
in
rain 24hr
in
rain mn
in
humidity
%
barometer
mb
20260510173624 63 13 2.0 4.0 0.00 0.00 0.00 51 1018.0
20260510172624 62 336 2.0 6.0 0.00 0.00 0.00 52 1017.9
20260510171624 62 14 3.0 6.0 0.00 0.00 0.00 52 1018.0
20260510170624 62 223 0.0 2.0 0.00 0.00 0.00 54 1017.7
20260510165644 61 205 1.0 3.0 0.00 0.00 0.00 55 1017.7
20260510164624 61 200 1.0 2.0 0.00 0.00 0.00 56 1017.5
20260510163624 60 177 1.0 5.0 0.00 0.00 0.00 54 1017.8
20260510162644 59 163 2.0 5.0 0.00 0.00 0.00 56 1017.9
20260510161644 58 208 2.0 3.0 0.00 0.00 0.00 58 1018.0
20260510160624 58 208 2.0 4.0 0.00 0.00 0.00 57 1017.9
20260510155625 57 196 2.0 5.0 0.00 0.00 0.00 60 1018.0
20260510154624 56 215 0.0 2.0 0.00 0.00 0.00 62 1018.1
20260510153624 55 164 2.0 4.0 0.00 0.00 0.00 63 1018.0
20260510152624 54 191 2.0 4.0 0.00 0.00 0.00 62 1018.1
20260510151624 54 201 3.0 4.0 0.00 0.00 0.00 65 1018.1
20260510150624 53 186 4.0 6.0 0.00 0.00 0.00 68 1018.1
20260510145624 52 214 3.0 4.0 0.00 0.00 0.00 68 1018.1
20260510144624 51 204 1.0 4.0 0.00 0.00 0.00 69 1018.1
20260510143625 50 201 1.0 2.0 0.00 0.00 0.00 68 1018.1
20260510142644 49 211 0.0 2.0 0.00 0.00 0.00 67 1018.3
20260510141624 48 179 0.0 2.0 0.00 0.00 0.00 70 1018.2
20260510140624 47 191 3.0 5.0 0.00 0.00 0.00 70 1018.1
20260510135624 47 0.0 1.0 0.00 0.00 0.00 70 1018.1
20260510134624 45 0.0 0.0 0.00 0.00 0.00 76 1018.1
20260510133624 41 0.0 0.0 0.00 0.00 0.00 82 1018.0
20260510132624 40 0.0 0.0 0.00 0.00 0.00 85 1018.0
20260510131644 40 0.0 0.0 0.00 0.00 0.00 85 1018.0
20260510130625 41 0.0 0.0 0.00 0.00 0.00 80 1018.0
20260510125624 41 0.0 0.0 0.00 0.00 0.00 81 1018.1
20260510124624 42 0.0 0.0 0.00 0.00 0.00 79 1018.0
20260510123704 41 0.0 0.0 0.00 0.00 0.00 79 1017.8
20260510122624 42 0.0 0.0 0.00 0.00 0.00 78 1017.7
20260510121645 42 0.0 0.0 0.00 0.00 0.00 76 1017.7
20260510120624 43 0.0 0.0 0.00 0.00 0.00 77 1017.7
20260510115624 43 0.0 1.0 0.00 0.00 0.00 75 1017.8
20260510114624 42 0.0 0.0 0.00 0.00 0.00 83 1017.9
20260510113624 43 0.0 0.0 0.00 0.00 0.00 79 1017.8
20260510112624 43 0.0 0.0 0.00 0.00 0.00 82 1017.8
20260510111624 44 0.0 0.0 0.00 0.00 0.00 79 1017.7
20260510110624 43 0.0 0.0 0.00 0.00 0.00 81 1017.8
20260510105624 43 0.0 0.0 0.00 0.00 0.00 81 1017.8
20260510104644 43 0.0 0.0 0.00 0.00 0.00 79 1017.7
20260510103625 43 0.0 0.0 0.00 0.00 0.00 76 1017.5
20260510102624 43 0.0 0.0 0.00 0.00 0.00 76 1017.6
20260510101624 44 0.0 0.0 0.00 0.00 0.00 78 1017.7
20260510100624 44 0.0 0.0 0.00 0.00 0.00 75 1017.8
20260510095624 44 0.0 0.0 0.00 0.00 0.00 80 1017.8
20260510094745 45 0.0 0.0 0.00 0.00 0.00 75 1017.8
20260510093624 45 0.0 0.0 0.00 0.00 0.00 83 1017.9
20260510092624 46 0.0 0.0 0.00 0.00 0.00 76 1017.8
20260510091624 46 0.0 0.0 0.00 0.00 0.00 76 1017.8
20260510090644 47 0.0 0.0 0.00 0.00 0.00 75 1017.8
20260510085624 47 0.0 0.0 0.00 0.00 0.00 75 1017.9
20260510084624 48 0.0 0.0 0.00 0.00 0.00 75 1017.8
20260510083624 49 0.0 0.0 0.00 0.00 0.00 72 1017.7
20260510082624 49 0.0 0.0 0.00 0.00 0.00 71 1017.7
20260510081624 49 0.0 0.0 0.00 0.00 0.00 70 1017.8
20260510080705 49 0.0 0.0 0.00 0.00 0.00 70 1017.8
20260510075624 50 0.0 0.0 0.00 0.00 0.00 71 1017.9
20260510074624 50 0.0 0.0 0.00 0.00 0.00 70 1017.9
20260510073624 51 0.0 0.0 0.00 0.00 0.00 68 1017.8
20260510072625 51 0.0 0.0 0.00 0.00 0.00 67 1017.8
20260510071624 52 0.0 0.0 0.00 0.00 0.00 68 1017.9
20260510070624 53 0.0 0.0 0.00 0.00 0.00 64 1017.9
20260510065705 54 0.0 0.0 0.00 0.00 0.00 63 1017.8
20260510064624 55 0.0 0.0 0.00 0.00 0.00 63 1017.8
20260510063624 56 0.0 0.0 0.00 0.00 0.00 62 1017.7
20260510062624 58 0.0 0.0 0.00 0.00 0.00 60 1017.6
20260510061644 59 0.0 0.0 0.00 0.00 0.00 57 1017.6
20260510060644 62 0.0 0.0 0.00 0.00 0.00 53 1017.6
20260510055705 63 6 0.0 3.0 0.00 0.00 0.00 52 1017.6
20260510054625 63 358 1.0 3.0 0.00 0.00 0.00 52 1017.5
20260510053645 64 19 3.0 4.0 0.00 0.00 0.00 51 1017.5
20260510052624 65 12 4.0 7.0 0.00 0.00 0.00 49 1017.6
20260510051624 64 194 4.0 6.0 0.00 0.00 0.00 49 1017.5
20260510050624 65 58 5.0 8.0 0.00 0.00 0.00 48 1017.4
20260510045625 66 6 5.0 8.0 0.00 0.00 0.00 46 1017.3
20260510044624 65 14 3.0 6.0 0.00 0.00 0.00 46 1017.3
20260510043627 66 25 3.0 7.0 0.00 0.00 0.00 45 1017.2
20260510042645 66 18 3.0 6.0 0.00 0.00 0.00 44 1017.2
20260510041625 66 12 3.0 5.0 0.00 0.00 0.00 43 1017.1
20260510040624 67 360 2.0 5.0 0.00 0.00 0.00 43 1016.9
20260510035625 68 10 2.0 5.0 0.00 0.00 0.00 41 1016.8
20260510034625 68 9 4.0 7.0 0.00 0.00 0.00 39 1016.7
20260510033625 69 12 4.0 6.0 0.00 0.00 0.00 37 1016.5
20260510032626 69 2 5.0 6.0 0.00 0.00 0.00 36 1016.5
20260510031625 70 22 4.0 7.0 0.00 0.00 0.00 35 1016.4
20260510030625 71 4 5.0 8.0 0.00 0.00 0.00 35 1016.2
20260510025625 72 17 5.0 8.0 0.00 0.00 0.00 34 1016.2
20260510024625 74 303 6.0 9.0 0.00 0.00 0.00 34 1016.2
20260510023625 76 338 3.0 8.0 0.00 0.00 0.00 32 1016.1
20260510022625 76 16 4.0 8.0 0.00 0.00 0.00 32 1016.2
20260510021625 77 11 4.0 7.0 0.00 0.00 0.00 32 1016.2
20260510020625 77 335 5.0 9.0 0.00 0.00 0.00 32 1016.1
20260510015626 78 19 5.0 11.0 0.00 0.00 0.00 33 1016.2
20260510014645 77 4 6.0 10.0 0.00 0.00 0.00 33 1016.3
20260510013625 78 5 7.0 12.0 0.00 0.00 0.00 32 1016.4
20260510012625 78 13 7.0 12.0 0.00 0.00 0.00 32 1016.4
20260510011626 79 17 7.0 13.0 0.00 0.00 0.00 32 1016.4
20260510010625 79 22 7.0 12.0 0.00 0.00 0.00 31 1016.3
20260510005625 79 18 6.0 10.0 0.00 0.00 0.00 31 1016.3
20260510004625 78 20 6.0 10.0 0.00 0.00 0.00 31 1016.4
20260510003625 79 22 8.0 12.0 0.00 0.00 0.00 30 1016.4
20260510002625 79 360 6.0 9.0 0.00 0.00 0.00 30 1016.5
20260510001625 80 120 6.0 11.0 0.00 0.00 0.00 29 1016.6
20260510000650 80 21 7.0 10.0 0.00 0.00 0.00 29 1016.8
20260509235626 82 349 5.0 9.0 0.00 0.00 0.00 27 1016.8
20260509234625 81 12 4.0 9.0 0.00 0.00 0.00 27 1016.9
20260509233626 83 58 3.0 7.0 0.00 0.00 0.00 26 1017.0
20260509232647 79 13 2.0 7.0 0.00 0.00 0.00 24 1017.3
20260509231628 80 359 0.0 2.0 0.00 0.00 0.00 24 1017.3
20260509230625 80 10 1.0 7.0 0.00 0.00 0.00 23 1017.4
20260509225645 81 178 2.0 6.0 0.00 0.00 0.00 26 1017.5
20260509224625 80 164 3.0 6.0 0.00 0.00 0.00 27 1017.7
20260509223625 80 180 3.0 7.0 0.00 0.00 0.00 26 1017.8
20260509222646 79 142 2.0 5.0 0.00 0.00 0.00 25 1018.0
20260509221625 79 196 3.0 7.0 0.00 0.00 0.00 26 1018.1
20260509220626 77 178 2.0 6.0 0.00 0.00 0.00 26 1018.3
20260509215628 80 194 2.0 6.0 0.00 0.00 0.00 27 1018.4
20260509214646 78 193 4.0 7.0 0.00 0.00 0.00 27 1018.7
20260509213625 78 261 3.0 8.0 0.00 0.00 0.00 25 1018.7
20260509212626 79 140 1.0 6.0 0.00 0.00 0.00 28 1018.8
20260509211625 78 211 2.0 6.0 0.00 0.00 0.00 27 1019.0
20260509210625 78 6 1.0 4.0 0.00 0.00 0.00 27 1019.1
20260509205625 77 178 4.0 7.0 0.00 0.00 0.00 27 1019.3
20260509204625 78 140 2.0 7.0 0.00 0.00 0.00 27 1019.4
20260509203625 76 287 1.0 4.0 0.00 0.00 0.00 29 1019.5
20260509202645 77 82 2.0 7.0 0.00 0.00 0.00 29 1019.6
20260509201625 77 154 3.0 9.0 0.00 0.00 0.00 31 1019.7
20260509200625 76 196 1.0 5.0 0.00 0.00 0.00 31 1019.8
20260509195626 74 169 5.0 8.0 0.00 0.00 0.00 34 1020.0
20260509194626 74 180 2.0 5.0 0.00 0.00 0.00 33 1020.1
20260509193625 73 215 2.0 4.0 0.00 0.00 0.00 30 1020.3
20260509192626 73 181 2.0 5.0 0.00 0.00 0.00 29 1020.5
20260509191628 74 169 3.0 7.0 0.00 0.00 0.00 32 1020.6
20260509190627 74 114 3.0 8.0 0.00 0.00 0.00 33 1020.8
20260509185646 73 197 3.0 8.0 0.00 0.00 0.00 32 1020.9
20260509184646 72 0.0 2.0 0.00 0.00 0.00 33 1021.1
20260509183625 70 196 3.0 8.0 0.00 0.00 0.00 35 1021.3
20260509182646 70 47 1.0 5.0 0.00 0.00 0.00 40 1021.4
20260509181626 68 108 6.0 10.0 0.00 0.00 0.00 41 1021.6
20260509180626 67 159 4.0 8.0 0.00 0.00 0.00 44 1021.7
20260509175646 66 183 3.0 6.0 0.00 0.00 0.00 47 1021.7
20260509174628 66 118 4.0 8.0 0.00 0.00 0.00 49 1021.8